Time,TemperatureF,DewpointF,PressureIn,WindDirection,WindDirectionDegrees,WindSpeedMPH,WindSpeedGustMPH,Humidity,HourlyPrecipIn,Conditions,Clouds,dailyrainin,SoftwareType,DateUTC
2013-02-18 00:02:00,41.0,32.0,29.83,SSE,160,14.0,-999.0,70,-99.99,,,-99.99,,2013-02-18 06:02:00,
2013-02-18 00:11:00,41.0,32.0,29.83,SSE,160,14.0,-999.0,70,-99.99,,,-99.99,,2013-02-18 06:11:00,
2013-02-18 00:21:00,41.0,32.0,29.82,South,170,14.0,-999.0,70,-99.99,,,-99.99,,2013-02-18 06:21:00,
2013-02-18 00:32:00,41.0,32.0,29.82,South,170,14.0,-999.0,70,-99.99,,,-99.99,,2013-02-18 06:32:00,
2013-02-18 00:42:00,39.0,32.0,29.82,South,170,13.0,-999.0,75,-99.99,,,-99.99,,2013-02-18 06:42:00,
2013-02-18 00:52:00,39.0,32.0,29.81,South,170,13.0,-999.0,75,-99.99,,,-99.99,,2013-02-18 06:52:00,
2013-02-18 01:01:00,39.0,32.0,29.81,South,170,13.0,-999.0,75,-99.99,,,-99.99,,2013-02-18 07:01:00,
2013-02-18 01:11:00,39.0,32.0,29.81,South,170,13.0,-999.0,75,-99.99,,,-99.99,,2013-02-18 07:11:00,
2013-02-18 01:21:00,39.0,32.0,29.81,South,170,13.0,-999.0,75,-99.99,,,-99.99,,2013-02-18 07:21:00,
2013-02-18 01:32:00,39.0,32.0,29.80,South,170,14.0,-999.0,75,-99.99,,,-99.99,,2013-02-18 07:32:00,
2013-02-18 01:42:00,39.0,32.0,29.80,South,170,13.0,-999.0,75,-99.99,,,-99.99,,2013-02-18 07:42:00,
2013-02-18 01:52:00,39.0,32.0,29.79,South,170,13.0,-999.0,75,-99.99,,,-99.99,,2013-02-18 07:52:00,
2013-02-18 02:01:00,39.0,32.0,29.79,South,170,13.0,-999.0,75,-99.99,,,-99.99,,2013-02-18 08:01:00,
2013-02-18 02:11:00,39.0,32.0,29.79,South,170,13.0,-999.0,75,-99.99,,,-99.99,,2013-02-18 08:11:00,
2013-02-18 02:21:00,41.0,32.0,29.79,South,180,10.0,-999.0,70,-99.99,,,-99.99,,2013-02-18 08:21:00,
2013-02-18 02:32:00,41.0,34.0,29.78,South,180,15.0,21.0,75,-99.99,,,-99.99,,2013-02-18 08:32:00,
2013-02-18 02:42:00,41.0,34.0,29.77,South,180,16.0,-999.0,75,-99.99,,,-99.99,,2013-02-18 08:42:00,
2013-02-18 02:52:00,43.0,34.0,29.77,South,180,16.0,22.0,70,-99.99,,,-99.99,,2013-02-18 08:52:00,
2013-02-18 03:02:00,43.0,34.0,29.77,South,180,16.0,22.0,70,-99.99,,,-99.99,,2013-02-18 09:02:00,
2013-02-18 03:11:00,43.0,34.0,29.77,South,180,16.0,22.0,70,-99.99,,,-99.99,,2013-02-18 09:11:00,
2013-02-18 03:22:00,41.0,34.0,29.76,South,170,15.0,-999.0,75,-99.99,,,-99.99,,2013-02-18 09:22:00,
2013-02-18 03:31:00,41.0,34.0,29.75,South,180,16.0,-999.0,75,-99.99,,,-99.99,,2013-02-18 09:31:00,
2013-02-18 03:42:00,41.0,34.0,29.74,South,170,16.0,21.0,75,-99.99,,,-99.99,,2013-02-18 09:42:00,
2013-02-18 03:52:00,41.0,34.0,29.74,South,180,16.0,-999.0,75,-99.99,,,-99.99,,2013-02-18 09:52:00,
2013-02-18 04:01:00,41.0,34.0,29.74,South,180,16.0,-999.0,75,-99.99,,,-99.99,,2013-02-18 10:01:00,
2013-02-18 04:11:00,41.0,34.0,29.74,South,180,16.0,-999.0,75,-99.99,,,-99.99,,2013-02-18 10:11:00,
2013-02-18 04:21:00,41.0,34.0,29.73,South,170,14.0,-999.0,75,-99.99,,,-99.99,,2013-02-18 10:21:00,
2013-02-18 04:31:00,41.0,34.0,29.72,South,170,14.0,-999.0,75,-99.99,,,-99.99,,2013-02-18 10:31:00,
2013-02-18 04:42:00,41.0,34.0,29.72,South,170,15.0,-999.0,75,-99.99,,,-99.99,,2013-02-18 10:42:00,
2013-02-18 04:53:00,41.0,34.0,29.72,South,170,15.0,-999.0,75,-99.99,,,-99.99,,2013-02-18 10:53:00,
2013-02-18 05:01:00,41.0,34.0,29.72,South,170,15.0,-999.0,75,-99.99,,,-99.99,,2013-02-18 11:01:00,
2013-02-18 05:11:00,41.0,34.0,29.72,South,170,15.0,-999.0,75,-99.99,,,-99.99,,2013-02-18 11:11:00,
2013-02-18 05:22:00,43.0,34.0,29.71,South,170,16.0,22.0,70,-99.99,,,-99.99,,2013-02-18 11:22:00,
2013-02-18 05:32:00,41.0,34.0,29.71,South,180,15.0,-999.0,75,-99.99,,,-99.99,,2013-02-18 11:32:00,
2013-02-18 05:43:00,43.0,34.0,29.71,South,180,16.0,-999.0,70,-99.99,,,-99.99,,2013-02-18 11:43:00,
2013-02-18 05:53:00,43.0,34.0,29.70,South,180,16.0,-999.0,70,-99.99,,,-99.99,,2013-02-18 11:53:00,
2013-02-18 06:02:00,43.0,34.0,29.70,South,180,16.0,-999.0,70,-99.99,,,-99.99,,2013-02-18 12:02:00,
2013-02-18 06:11:00,43.0,34.0,29.70,South,180,16.0,-999.0,70,-99.99,,,-99.99,,2013-02-18 12:11:00,
2013-02-18 06:22:00,43.0,36.0,29.70,South,180,18.0,24.0,75,-99.99,,,-99.99,,2013-02-18 12:22:00,
2013-02-18 06:32:00,43.0,36.0,29.69,South,170,20.0,24.0,75,-99.99,,,-99.99,,2013-02-18 12:32:00,
2013-02-18 06:42:00,43.0,36.0,29.69,South,180,20.0,-999.0,75,-99.99,,,-99.99,,2013-02-18 12:42:00,
2013-02-18 06:53:00,45.0,36.0,29.69,South,180,22.0,-999.0,70,-99.99,,,-99.99,,2013-02-18 12:53:00,
2013-02-18 07:02:00,45.0,36.0,29.69,South,180,22.0,-999.0,70,-99.99,,,-99.99,,2013-02-18 13:02:00,
2013-02-18 07:12:00,45.0,36.0,29.69,South,180,22.0,-999.0,70,-99.99,,,-99.99,,2013-02-18 13:12:00,
2013-02-18 07:22:00,45.0,36.0,29.68,South,170,21.0,28.0,70,-99.99,,,-99.99,,2013-02-18 13:22:00,
2013-02-18 07:32:00,45.0,36.0,29.68,South,180,23.0,30.0,70,-99.99,,,-99.99,,2013-02-18 13:32:00,
2013-02-18 07:42:00,46.0,36.0,29.68,South,180,23.0,28.0,65,-99.99,,,-99.99,,2013-02-18 13:42:00,
2013-02-18 07:53:00,46.0,37.0,29.68,South,180,24.0,29.0,70,-99.99,,,-99.99,,2013-02-18 13:53:00,
2013-02-18 08:02:00,46.0,37.0,29.68,South,180,24.0,29.0,70,-99.99,,,-99.99,,2013-02-18 14:02:00,
2013-02-18 08:11:00,46.0,37.0,29.68,South,180,24.0,29.0,70,-99.99,,,-99.99,,2013-02-18 14:11:00,
2013-02-18 08:22:00,46.0,37.0,29.69,South,180,22.0,32.0,70,-99.99,,,-99.99,,2013-02-18 14:22:00,
2013-02-18 08:33:00,46.0,37.0,29.69,South,180,23.0,31.0,70,-99.99,,,-99.99,,2013-02-18 14:33:00,
2013-02-18 08:42:00,46.0,37.0,29.68,South,180,24.0,30.0,70,-99.99,,,-99.99,,2013-02-18 14:42:00,
2013-02-18 08:53:00,48.0,39.0,29.68,South,180,24.0,32.0,70,-99.99,,,-99.99,,2013-02-18 14:53:00,
2013-02-18 09:02:00,48.0,39.0,29.68,South,180,24.0,32.0,70,-99.99,,,-99.99,,2013-02-18 15:02:00,
2013-02-18 09:11:00,48.0,39.0,29.68,South,180,24.0,32.0,70,-99.99,,,-99.99,,2013-02-18 15:11:00,
2013-02-18 09:22:00,48.0,39.0,29.70,South,180,22.0,29.0,70,-99.99,,,-99.99,,2013-02-18 15:22:00,
2013-02-18 09:32:00,48.0,39.0,29.69,South,180,20.0,27.0,70,-99.99,,,-99.99,,2013-02-18 15:32:00,
2013-02-18 09:42:00,48.0,39.0,29.69,South,180,22.0,25.0,70,-99.99,,,-99.99,,2013-02-18 15:42:00,
2013-02-18 09:53:00,48.0,39.0,29.68,South,180,21.0,25.0,70,-99.99,,,-99.99,,2013-02-18 15:53:00,
2013-02-18 10:02:00,48.0,39.0,29.68,South,180,21.0,25.0,70,-99.99,,,-99.99,,2013-02-18 16:02:00,
2013-02-18 10:12:00,48.0,39.0,29.68,South,180,21.0,25.0,70,-99.99,,,-99.99,,2013-02-18 16:12:00,
2013-02-18 10:22:00,50.0,41.0,29.68,South,180,22.0,31.0,71,-99.99,,,-99.99,,2013-02-18 16:22:00,
2013-02-18 10:32:00,50.0,41.0,29.68,South,180,21.0,-999.0,71,-99.99,,,-99.99,,2013-02-18 16:32:00,
2013-02-18 10:43:00,50.0,41.0,29.67,South,180,17.0,22.0,71,-99.99,,,-99.99,,2013-02-18 16:43:00,
2013-02-18 10:53:00,50.0,41.0,29.67,South,180,18.0,23.0,71,-99.99,,,-99.99,,2013-02-18 16:53:00,
2013-02-18 11:03:00,50.0,41.0,29.67,South,180,18.0,23.0,71,-99.99,,,-99.99,,2013-02-18 17:03:00,
2013-02-18 11:12:00,50.0,41.0,29.67,South,180,18.0,23.0,71,-99.99,,,-99.99,,2013-02-18 17:12:00,
2013-02-18 11:22:00,52.0,43.0,29.66,South,180,21.0,29.0,71,-99.99,,,-99.99,,2013-02-18 17:22:00,
2013-02-18 11:32:00,52.0,43.0,29.66,South,180,23.0,27.0,71,-99.99,,,-99.99,,2013-02-18 17:32:00,
2013-02-18 11:43:00,52.0,43.0,29.66,South,170,17.0,27.0,71,-99.99,,,-99.99,,2013-02-18 17:43:00,
2013-02-18 11:53:00,52.0,43.0,29.65,South,180,21.0,27.0,71,-99.99,,,-99.99,,2013-02-18 17:53:00,
2013-02-18 12:02:00,52.0,43.0,29.65,South,180,21.0,27.0,71,-99.99,,,-99.99,,2013-02-18 18:02:00,
2013-02-18 12:12:00,52.0,43.0,29.65,South,180,21.0,27.0,71,-99.99,,,-99.99,,2013-02-18 18:12:00,
2013-02-18 12:22:00,52.0,45.0,29.63,South,170,18.0,25.0,76,-99.99,,,-99.99,,2013-02-18 18:22:00,
2013-02-18 12:43:00,52.0,45.0,29.62,South,170,18.0,27.0,76,-99.99,,,-99.99,,2013-02-18 18:43:00,
2013-02-18 12:53:00,52.0,45.0,29.61,South,170,17.0,27.0,76,-99.99,,,-99.99,,2013-02-18 18:53:00,
2013-02-18 13:02:00,52.0,45.0,29.61,South,170,17.0,27.0,76,-99.99,,,-99.99,,2013-02-18 19:02:00,
2013-02-18 13:12:00,52.0,45.0,29.61,South,170,17.0,27.0,76,-99.99,,,-99.99,,2013-02-18 19:12:00,
2013-02-18 13:22:00,50.0,46.0,29.59,South,170,20.0,24.0,87,-99.99,,,-99.99,,2013-02-18 19:22:00,
2013-02-18 13:33:00,50.0,46.0,29.58,South,170,21.0,24.0,87,-99.99,,,-99.99,,2013-02-18 19:33:00,
2013-02-18 13:43:00,52.0,46.0,29.57,South,170,24.0,29.0,81,-99.99,,,-99.99,,2013-02-18 19:43:00,
2013-02-18 13:53:00,50.0,46.0,29.57,South,170,20.0,28.0,87,-99.99,,,-99.99,,2013-02-18 19:53:00,
2013-02-18 14:02:00,50.0,46.0,29.57,South,170,20.0,28.0,87,-99.99,,,-99.99,,2013-02-18 20:02:00,
2013-02-18 14:12:00,50.0,46.0,29.57,South,170,20.0,28.0,87,-99.99,,,-99.99,,2013-02-18 20:12:00,
2013-02-18 14:22:00,50.0,48.0,29.54,South,170,20.0,24.0,93,-99.99,,,-99.99,,2013-02-18 20:22:00,
2013-02-18 14:33:00,50.0,48.0,29.54,South,170,17.0,24.0,93,-99.99,,,-99.99,,2013-02-18 20:33:00,
2013-02-18 14:43:00,50.0,48.0,29.54,South,170,17.0,-999.0,93,-99.99,,,-99.99,,2013-02-18 20:43:00,
2013-02-18 14:53:00,50.0,48.0,29.52,South,170,14.0,-999.0,93,-99.99,,,-99.99,,2013-02-18 20:53:00,
2013-02-18 15:03:00,50.0,48.0,29.52,South,170,14.0,-999.0,93,-99.99,,,-99.99,,2013-02-18 21:03:00,
2013-02-18 15:12:00,50.0,48.0,29.52,South,170,14.0,-999.0,93,-99.99,,,-99.99,,2013-02-18 21:12:00,
2013-02-18 15:22:00,48.0,48.0,29.50,SSE,160,15.0,24.0,100,-99.99,,,-99.99,,2013-02-18 21:22:00,
2013-02-18 15:32:00,50.0,48.0,29.50,SSE,160,15.0,24.0,93,-99.99,,,-99.99,,2013-02-18 21:32:00,
2013-02-18 15:43:00,50.0,48.0,29.48,SSE,160,15.0,21.0,93,-99.99,,,-99.99,,2013-02-18 21:43:00,
2013-02-18 15:53:00,48.0,48.0,29.48,South,170,20.0,25.0,100,-99.99,,,-99.99,,2013-02-18 21:53:00,
2013-02-18 16:02:00,48.0,48.0,29.48,South,170,20.0,25.0,100,-99.99,,,-99.99,,2013-02-18 22:02:00,
2013-02-18 16:12:00,48.0,48.0,29.48,South,170,20.0,25.0,100,-99.99,,,-99.99,,2013-02-18 22:12:00,
2013-02-18 16:22:00,43.0,43.0,29.57,West,280,17.0,23.0,100,-99.99,,,-99.99,,2013-02-18 22:22:00,
2013-02-18 16:33:00,43.0,43.0,29.58,NW,310,23.0,-999.0,100,-99.99,,,-99.99,,2013-02-18 22:33:00,
2013-02-18 16:43:00,39.0,39.0,29.59,NW,320,17.0,32.0,100,-99.99,,,-99.99,,2013-02-18 22:43:00,
2013-02-18 16:53:00,39.0,39.0,29.60,NW,320,23.0,-999.0,100,-99.99,,,-99.99,,2013-02-18 22:53:00,
2013-02-18 17:22:00,37.0,37.0,29.64,NW,320,20.0,30.0,100,-99.99,,,-99.99,,2013-02-18 23:22:00,
2013-02-18 17:33:00,37.0,37.0,29.65,NW,320,18.0,27.0,100,-99.99,,,-99.99,,2013-02-18 23:33:00,
2013-02-18 17:43:00,37.0,37.0,29.67,NW,310,24.0,32.0,100,-99.99,,,-99.99,,2013-02-18 23:43:00,
2013-02-18 17:53:00,36.0,36.0,29.69,NW,310,22.0,28.0,100,-99.99,,,-99.99,,2013-02-18 23:53:00,
2013-02-18 18:12:00,36.0,36.0,29.69,NW,310,22.0,28.0,100,-99.99,,,-99.99,,2013-02-19 00:12:00,
2013-02-18 18:22:00,36.0,36.0,29.72,NW,310,18.0,22.0,100,-99.99,,,-99.99,,2013-02-19 00:22:00,
2013-02-18 18:34:00,36.0,36.0,29.72,WNW,300,14.0,24.0,100,-99.99,,,-99.99,,2013-02-19 00:34:00,
2013-02-18 18:44:00,36.0,36.0,29.73,WNW,300,17.0,21.0,100,-99.99,,,-99.99,,2013-02-19 00:44:00,
2013-02-18 18:54:00,36.0,36.0,29.74,WNW,300,25.0,33.0,100,-99.99,,,-99.99,,2013-02-19 00:54:00,
2013-02-18 19:03:00,36.0,36.0,29.74,WNW,300,25.0,33.0,100,-99.99,,,-99.99,,2013-02-19 01:03:00,
2013-02-18 19:13:00,36.0,36.0,29.74,WNW,300,25.0,33.0,100,-99.99,,,-99.99,,2013-02-19 01:13:00,
2013-02-18 19:23:00,36.0,36.0,29.74,WNW,300,25.0,33.0,100,-99.99,,,-99.99,,2013-02-19 01:23:00,
2013-02-18 19:34:00,36.0,36.0,29.74,WNW,300,25.0,33.0,100,-99.99,,,-99.99,,2013-02-19 01:34:00,